Location: Karcze
(52.0945°N, 22.4786°E)
Time: 13:29:08
(UTC+00:00)

Tiangong - Pass Details

Date: 28 June 2021
Orbit: 373 x 386 km, 41.5° (Epoch: 31 July)

Event Time Altitude Azimuth Distance (km) Brightness Sun altitude
Exits shadow 01:08:42 10° 209° (SSW) 1,386 3.2 -7.3°
Reaches altitude 10° 01:08:42 10° 209° (SSW) 1,384 3.2 -7.3°
Maximum altitude 01:09:53 12° 187° (S) 1,290 3.2 -7.2°
Drops below altitude 10° 01:11:04 10° 164° (SSE) 1,387 3.5 -7.1°
Sets 01:14:12 0° 130° (SE) 2,242 4.9 -6.8°
